Weather History for Pompano Beach, FL

Change the Weather History Date:

Friday, November 16, 2012

  Actual Average Record
Temperature  
Mean Temperature 70 °F -  
Max Temperature 75 °F 82 °F 89 °F (1951)
Min Temperature 64 °F 64 °F 48 °F (1969)
Cooling Degree Days 4    
Growing Degree Days 20 (Base 50)    
Moisture  
Dew Point 66 °F    
Average Humidity 92    
Maximum Humidity 100    
Minimum Humidity 69    
Precipitation  
Precipitation 0.28 in - - ()
Sea Level Pressure  
Sea Level Pressure 30.08 in    
Wind  
Wind Speed 9 mph (NNW)    
Max Wind Speed 15 mph    
Max Gust Speed 20 mph    
Visibility 10 miles    
Events Rain    
Averages and records for this station are not official NWS values.
T = Trace of Precipitation, MM = Missing Value Source: NWS Daily Summary

Daily Weather History Graph

Daily Weather History Graph

Search for Another Location

Airport:

Trip Planner

Search our weather history database for the weather conditions in past years. The results will help you decide how hot, cold, wet, or windy it might be!

Date:

Astronomy

Nov. 16, 2012 Rise Set
Actual Time 6:40 AM EST 5:30 PM EST
Civil Twilight 6:15 AM EST 5:54 PM EST
Nautical Twilight 5:47 AM EST 6:22 PM EST
Astronomical Twilight 5:20 AM EST 6:50 PM EST
Moon 9:28 AM EST (11/16) 8:31 PM EST (11/16)
Length of Visible Light 11h 38m
Length of Day
10h 50m
Waxing Crescent, 11% of the Moon is Illuminated
Nov 16
Waxing Crescent
Nov 20
First Quarter
Nov 28
Full
Dec 6
Last Quarter
Dec 13
New

Hourly Weather History & Observations

Time (EST) Temp. Dew Point Humidity Pressure Visibility Wind Dir Wind Speed Gust Speed Precip Events Conditions
12:53 AM 66.9 °F 66.9 °F 100% 30.07 in 10.0 mi NNW 11.5 mph - N/A   Overcast
1:53 AM 66.0 °F 66.0 °F 100% 30.06 in 10.0 mi NNW 9.2 mph - N/A   Overcast
2:53 AM 64.9 °F 64.9 °F 100% 30.07 in 10.0 mi NNW 10.4 mph - N/A   Overcast
3:53 AM 64.9 °F 64.9 °F 100% 30.07 in 10.0 mi NNW 9.2 mph - N/A   Mostly Cloudy
4:53 AM 64.0 °F 64.0 °F 100% 30.06 in 10.0 mi NW 9.2 mph - N/A   Mostly Cloudy
5:02 AM 64.4 °F 64.4 °F 100% 30.06 in 10.0 mi NNW 8.1 mph - N/A   Mostly Cloudy
5:17 AM 64.4 °F 64.4 °F 100% 30.07 in 10.0 mi NW 9.2 mph - N/A   Overcast
5:53 AM 64.0 °F 64.0 °F 100% 30.08 in 10.0 mi NNW 9.2 mph - N/A   Overcast
6:33 AM 64.4 °F 64.4 °F 100% 30.08 in 8.0 mi NNW 9.2 mph - N/A   Overcast
6:53 AM 64.0 °F 64.0 °F 100% 30.09 in 8.0 mi NNW 6.9 mph - N/A   Overcast
7:53 AM 64.9 °F 64.9 °F 100% 30.10 in 9.0 mi NNW 8.1 mph - N/A   Overcast
8:41 AM 66.2 °F 66.2 °F 100% 30.11 in 10.0 mi NNW 8.1 mph - N/A   Mostly Cloudy
8:53 AM 68.0 °F 66.0 °F 93% 30.11 in 10.0 mi NNW 5.8 mph - N/A   Mostly Cloudy
9:53 AM 68.0 °F 66.0 °F 93% 30.12 in 10.0 mi NNW 8.1 mph - N/A   Mostly Cloudy
10:00 AM 69.8 °F 66.2 °F 88% 30.12 in 10.0 mi NW 8.1 mph - N/A   Overcast
10:32 AM 69.8 °F 66.2 °F 88% 30.11 in 10.0 mi NW 9.2 mph - N/A   Overcast
10:53 AM 69.1 °F 66.9 °F 93% 30.11 in 10.0 mi NW 6.9 mph - N/A   Mostly Cloudy
11:53 AM 71.1 °F 66.9 °F 87% 30.09 in 10.0 mi NNW 12.7 mph - N/A   Mostly Cloudy
12:53 PM 75.0 °F 66.9 °F 76% 30.05 in 10.0 mi NNW 8.1 mph - N/A   Mostly Cloudy
1:53 PM 75.9 °F 64.9 °F 69% 30.05 in 10.0 mi NNE 8.1 mph - N/A   Mostly Cloudy
2:53 PM 75.9 °F 66.9 °F 74% 30.04 in 10.0 mi NNE 11.5 mph - N/A   Mostly Cloudy
3:53 PM 75.0 °F 66.0 °F 73% 30.03 in 10.0 mi NE 9.2 mph - N/A   Partly Cloudy
4:53 PM 73.9 °F 68.0 °F 82% 30.04 in 10.0 mi NE 13.8 mph - N/A   Partly Cloudy
5:53 PM 73.0 °F 66.9 °F 81% 30.05 in 10.0 mi NNE 5.8 mph - N/A   Mostly Cloudy
6:53 PM 72.0 °F 66.0 °F 81% 30.06 in 10.0 mi NE 5.8 mph - N/A   Partly Cloudy
7:53 PM 72.0 °F 66.0 °F 81% 30.07 in 10.0 mi NE 4.6 mph - N/A   Mostly Cloudy
8:53 PM 72.0 °F 66.9 °F 84% 30.08 in 10.0 mi ESE 15.0 mph 19.6 mph 0.00 in Rain Light Rain
9:53 PM 68.0 °F 68.0 °F 100% 30.09 in 10.0 mi NNW 5.8 mph - 0.25 in Rain Light Rain
10:53 PM 69.1 °F 69.1 °F 100% 30.08 in 10.0 mi NNE 3.5 mph - 0.03 in Rain Light Rain
11:01 PM 68.0 °F 68.0 °F 100% 30.08 in 10.0 mi Calm Calm - 0.00 in   Overcast
11:53 PM 68.0 °F 68.0 °F 100% 30.05 in 10.0 mi NNW 4.6 mph - 0.00 in   Mostly Cloudy